Time,TemperatureF,DewpointF,PressureIn,WindDirection,WindDirectionDegrees,WindSpeedMPH,WindSpeedGustMPH,Humidity,HourlyPrecipIn,Conditions,Clouds,dailyrainin,SoftwareType,DateUTC
2013-02-11 00:00:00,38.0,35.3,29.45,East,90,1.6,2.2,90,0.01,,,0.23,WUHU216HW,2013-02-11 00:00:00,
2013-02-11 00:05:00,38.0,35.3,29.45,SE,135,4.0,4.0,90,0.01,,,0.00,WUHU216HW,2013-02-11 00:05:00,
2013-02-11 00:10:00,38.0,35.3,29.45,WNW,293,4.9,4.9,90,0.01,,,0.00,WUHU216HW,2013-02-11 00:10:00,
2013-02-11 00:15:00,38.0,35.3,29.45,SE,135,4.5,4.9,90,0.01,,,0.00,WUHU216HW,2013-02-11 00:15:00,
2013-02-11 00:20:00,38.0,35.3,29.46,ESE,113,1.8,4.9,90,0.01,,,0.00,WUHU216HW,2013-02-11 00:20:00,
2013-02-11 00:25:00,38.0,35.3,29.46,ESE,113,2.9,2.9,90,0.01,,,0.00,WUHU216HW,2013-02-11 00:25:00,
2013-02-11 00:30:00,38.0,35.3,29.46,ESE,113,1.8,2.9,90,0.01,,,0.00,WUHU216HW,2013-02-11 00:30:00,
2013-02-11 00:35:00,38.0,35.3,29.47,ENE,68,2.5,3.1,90,0.01,,,0.00,WUHU216HW,2013-02-11 00:35:00,
2013-02-11 00:40:00,38.0,35.3,29.47,ESE,113,3.1,3.1,90,0.00,,,0.00,WUHU216HW,2013-02-11 00:40:00,
2013-02-11 00:45:00,38.0,35.3,29.47,ENE,68,1.8,3.1,90,0.00,,,0.00,WUHU216HW,2013-02-11 00:45:00,
2013-02-11 00:50:00,37.8,35.1,29.47,SE,135,3.8,3.8,90,0.00,,,0.00,WUHU216HW,2013-02-11 00:50:00,
2013-02-11 00:55:00,38.0,35.3,29.47,ENE,68,2.7,3.8,90,0.00,,,0.00,WUHU216HW,2013-02-11 00:55:00,
2013-02-11 01:00:00,37.8,35.1,29.47,ESE,113,3.1,3.8,90,0.00,,,0.00,WUHU216HW,2013-02-11 01:00:00,
2013-02-11 01:05:00,37.8,35.1,29.47,NE,45,2.5,3.1,90,0.00,,,0.00,WUHU216HW,2013-02-11 01:05:00,
2013-02-11 01:10:00,37.8,35.1,29.47,ESE,113,4.7,4.7,90,0.00,,,0.00,WUHU216HW,2013-02-11 01:10:00,
2013-02-11 01:15:00,37.8,35.1,29.48,ESE,113,4.3,4.7,90,0.00,,,0.00,WUHU216HW,2013-02-11 01:15:00,
2013-02-11 01:20:00,37.8,35.1,29.48,ESE,113,3.6,4.7,90,0.00,,,0.00,WUHU216HW,2013-02-11 01:20:00,
2013-02-11 01:25:00,37.8,35.1,29.48,NNE,23,1.3,4.3,90,0.00,,,0.00,WUHU216HW,2013-02-11 01:25:00,
2013-02-11 01:30:00,37.8,35.1,29.48,East,90,1.1,3.6,90,0.00,,,0.00,WUHU216HW,2013-02-11 01:30:00,
2013-02-11 01:35:00,37.8,35.1,29.48,SE,135,2.7,2.7,90,0.00,,,0.00,WUHU216HW,2013-02-11 01:35:00,
2013-02-11 01:40:00,37.8,35.1,29.49,ESE,113,5.8,5.8,90,0.00,,,0.00,WUHU216HW,2013-02-11 01:40:00,
2013-02-11 01:45:00,37.8,35.1,29.48,East,90,6.7,6.7,90,0.00,,,0.00,WUHU216HW,2013-02-11 01:45:00,
2013-02-11 01:50:00,37.8,35.1,29.48,NE,45,3.4,6.7,90,0.00,,,0.00,WUHU216HW,2013-02-11 01:50:00,
2013-02-11 01:55:00,37.8,35.1,29.49,ESE,113,3.4,6.7,90,0.00,,,0.00,WUHU216HW,2013-02-11 01:55:00,
2013-02-11 02:00:00,37.8,35.1,29.49,ENE,68,2.5,3.4,90,0.01,,,0.01,WUHU216HW,2013-02-11 02:00:00,
2013-02-11 02:05:00,37.8,35.1,29.49,NE,45,1.6,3.4,90,0.01,,,0.01,WUHU216HW,2013-02-11 02:05:00,
2013-02-11 02:10:00,37.8,35.1,29.49,SE,135,2.7,2.7,90,0.01,,,0.01,WUHU216HW,2013-02-11 02:10:00,
2013-02-11 02:15:00,37.6,34.9,29.50,ESE,113,3.4,3.4,90,0.01,,,0.01,WUHU216HW,2013-02-11 02:15:00,
2013-02-11 02:20:00,37.6,34.9,29.50,SE,135,2.9,3.4,90,0.01,,,0.01,WUHU216HW,2013-02-11 02:20:00,
2013-02-11 02:25:00,37.6,35.2,29.50,ESE,113,1.1,3.4,91,0.01,,,0.01,WUHU216HW,2013-02-11 02:25:00,
2013-02-11 02:30:00,37.4,35.0,29.50,ESE,113,2.0,2.9,91,0.01,,,0.01,WUHU216HW,2013-02-11 02:30:00,
2013-02-11 02:35:00,37.4,34.7,29.50,ENE,68,2.9,2.9,90,0.01,,,0.01,WUHU216HW,2013-02-11 02:35:00,
2013-02-11 02:40:00,37.4,34.7,29.50,ESE,113,2.5,2.9,90,0.01,,,0.01,WUHU216HW,2013-02-11 02:40:00,
2013-02-11 02:45:00,37.4,34.7,29.50,SE,135,2.2,5.4,90,0.01,,,0.01,WUHU216HW,2013-02-11 02:45:00,
2013-02-11 02:50:00,37.4,34.7,29.51,SE,135,2.5,5.4,90,0.01,,,0.01,WUHU216HW,2013-02-11 02:50:00,
2013-02-11 02:55:00,37.4,35.0,29.51,SE,135,3.4,3.4,91,0.00,,,0.01,WUHU216HW,2013-02-11 02:55:00,
2013-02-11 03:00:00,37.4,34.7,29.51,SE,135,3.6,3.6,90,0.00,,,0.01,WUHU216HW,2013-02-11 03:00:00,
2013-02-11 03:05:00,37.4,34.5,29.51,ENE,68,2.2,3.6,89,0.00,,,0.01,WUHU216HW,2013-02-11 03:05:00,
2013-02-11 03:10:00,37.4,34.7,29.51,SE,135,1.3,3.6,90,0.00,,,0.01,WUHU216HW,2013-02-11 03:10:00,
2013-02-11 03:15:00,37.4,34.5,29.51,ESE,113,1.3,2.2,89,0.00,,,0.01,WUHU216HW,2013-02-11 03:15:00,
2013-02-11 03:20:00,37.3,34.3,29.51,ESE,113,3.4,3.4,89,0.00,,,0.01,WUHU216HW,2013-02-11 03:20:00,
2013-02-11 03:25:00,37.3,34.3,29.52,ENE,68,2.9,3.4,89,0.00,,,0.01,WUHU216HW,2013-02-11 03:25:00,
2013-02-11 03:30:00,37.4,34.5,29.52,NNE,23,1.1,2.9,89,0.00,,,0.01,WUHU216HW,2013-02-11 03:30:00,
2013-02-11 03:35:00,37.4,34.5,29.52,East,90,3.4,3.4,89,0.00,,,0.01,WUHU216HW,2013-02-11 03:35:00,
2013-02-11 03:40:00,37.4,34.5,29.52,ENE,68,2.5,3.4,89,0.00,,,0.01,WUHU216HW,2013-02-11 03:40:00,
2013-02-11 03:45:00,37.4,34.7,29.52,NE,45,2.5,2.5,90,0.00,,,0.01,WUHU216HW,2013-02-11 03:45:00,
2013-02-11 03:50:00,37.4,34.7,29.52,East,90,2.0,2.5,90,0.00,,,0.01,WUHU216HW,2013-02-11 03:50:00,
2013-02-11 03:55:00,37.4,34.7,29.53,ESE,113,1.6,2.5,90,0.00,,,0.01,WUHU216HW,2013-02-11 03:55:00,
2013-02-11 04:00:00,37.3,34.3,29.53,ESE,113,1.8,1.8,89,0.00,,,0.01,WUHU216HW,2013-02-11 04:00:00,
2013-02-11 04:05:00,37.4,34.5,29.53,SE,135,4.9,4.9,89,0.00,,,0.01,WUHU216HW,2013-02-11 04:05:00,
2013-02-11 04:10:00,37.3,34.3,29.54,SE,135,2.9,4.9,89,0.00,,,0.01,WUHU216HW,2013-02-11 04:10:00,
2013-02-11 04:15:00,37.3,34.3,29.54,SE,135,2.5,2.9,89,0.00,,,0.01,WUHU216HW,2013-02-11 04:15:00,
2013-02-11 04:20:00,37.3,34.3,29.54,ESE,113,2.7,2.9,89,0.00,,,0.01,WUHU216HW,2013-02-11 04:20:00,
2013-02-11 04:25:00,37.3,34.3,29.54,East,90,4.7,4.7,89,0.00,,,0.01,WUHU216HW,2013-02-11 04:25:00,
2013-02-11 04:30:00,37.3,34.0,29.54,East,90,3.1,4.7,88,0.00,,,0.01,WUHU216HW,2013-02-11 04:30:00,
2013-02-11 04:35:00,37.3,34.0,29.54,ESE,113,1.8,4.7,88,0.00,,,0.01,WUHU216HW,2013-02-11 04:35:00,
2013-02-11 04:40:00,37.3,33.7,29.54,ESE,113,3.4,3.4,87,0.00,,,0.01,WUHU216HW,2013-02-11 04:40:00,
2013-02-11 04:45:00,37.3,33.7,29.54,SE,135,1.8,3.4,87,0.00,,,0.01,WUHU216HW,2013-02-11 04:45:00,
2013-02-11 04:50:00,37.3,33.7,29.54,East,90,2.7,3.4,87,0.00,,,0.01,WUHU216HW,2013-02-11 04:50:00,
2013-02-11 04:55:00,37.3,33.7,29.54,ESE,113,5.1,5.1,87,0.00,,,0.01,WUHU216HW,2013-02-11 04:55:00,
2013-02-11 05:00:00,37.3,33.7,29.54,SE,135,2.2,5.1,87,0.00,,,0.01,WUHU216HW,2013-02-11 05:00:00,
2013-02-11 05:05:00,37.3,33.4,29.54,North,0,2.2,5.1,86,0.00,,,0.01,WUHU216HW,2013-02-11 05:05:00,
2013-02-11 05:10:00,37.3,33.4,29.54,SE,135,4.3,4.3,86,0.00,,,0.01,WUHU216HW,2013-02-11 05:10:00,
2013-02-11 05:15:00,37.3,33.4,29.54,East,90,1.1,4.3,86,0.00,,,0.01,WUHU216HW,2013-02-11 05:15:00,
2013-02-11 05:21:00,37.3,33.4,29.54,ENE,68,1.6,4.3,86,0.00,,,0.01,WUHU216HW,2013-02-11 05:21:00,
2013-02-11 05:26:00,37.3,33.4,29.54,SSE,158,2.9,2.9,86,0.00,,,0.01,WUHU216HW,2013-02-11 05:26:00,
2013-02-11 05:31:00,37.3,33.1,29.55,East,90,4.7,4.7,85,0.00,,,0.01,WUHU216HW,2013-02-11 05:31:00,
2013-02-11 05:36:00,37.3,33.1,29.55,NE,45,0.9,4.7,85,0.00,,,0.01,WUHU216HW,2013-02-11 05:36:00,
2013-02-11 05:41:00,37.1,32.9,29.55,ENE,68,2.9,2.9,85,0.00,,,0.01,WUHU216HW,2013-02-11 05:41:00,
2013-02-11 05:46:00,37.1,32.7,29.55,SE,135,0.9,2.9,84,0.00,,,0.01,WUHU216HW,2013-02-11 05:46:00,
2013-02-11 05:51:00,37.1,32.7,29.56,East,90,2.5,2.9,84,0.00,,,0.01,WUHU216HW,2013-02-11 05:51:00,
2013-02-11 05:56:00,37.1,32.7,29.56,NE,45,2.2,2.5,84,0.00,,,0.01,WUHU216HW,2013-02-11 05:56:00,
2013-02-11 06:01:00,37.1,32.7,29.57,ESE,113,2.7,2.7,84,0.00,,,0.01,WUHU216HW,2013-02-11 06:01:00,
2013-02-11 06:06:00,37.1,32.7,29.57,East,90,0.7,3.8,84,0.00,,,0.01,WUHU216HW,2013-02-11 06:06:00,
2013-02-11 06:11:00,37.1,32.7,29.57,East,90,2.5,3.8,84,0.00,,,0.01,WUHU216HW,2013-02-11 06:11:00,
2013-02-11 06:16:00,37.1,32.7,29.57,ESE,113,2.0,2.7,84,0.00,,,0.01,WUHU216HW,2013-02-11 06:16:00,
2013-02-11 06:21:00,37.1,32.7,29.57,SE,135,3.6,3.6,84,0.00,,,0.01,WUHU216HW,2013-02-11 06:21:00,
2013-02-11 06:26:00,37.1,32.7,29.57,East,90,2.2,3.6,84,0.00,,,0.01,WUHU216HW,2013-02-11 06:26:00,
2013-02-11 06:31:00,37.1,32.7,29.57,SE,135,2.5,4.0,84,0.00,,,0.01,WUHU216HW,2013-02-11 06:31:00,
2013-02-11 06:36:00,37.1,32.7,29.57,ESE,113,5.8,5.8,84,0.00,,,0.01,WUHU216HW,2013-02-11 06:36:00,
2013-02-11 06:41:00,37.1,32.7,29.58,NE,45,1.1,5.8,84,0.00,,,0.01,WUHU216HW,2013-02-11 06:41:00,
2013-02-11 06:46:00,37.1,32.7,29.58,SE,135,2.0,5.8,84,0.00,,,0.01,WUHU216HW,2013-02-11 06:46:00,
2013-02-11 06:51:00,37.1,32.7,29.58,NNE,23,3.6,3.6,84,0.00,,,0.01,WUHU216HW,2013-02-11 06:51:00,
2013-02-11 06:56:00,37.1,32.7,29.59,East,90,3.1,3.6,84,0.00,,,0.01,WUHU216HW,2013-02-11 06:56:00,
2013-02-11 07:01:00,37.3,32.9,29.59,SE,135,4.0,4.0,84,0.00,,,0.01,WUHU216HW,2013-02-11 07:01:00,
2013-02-11 07:06:00,37.3,32.9,29.59,ESE,113,2.0,4.0,84,0.00,,,0.01,WUHU216HW,2013-02-11 07:06:00,
2013-02-11 07:11:00,37.3,32.9,29.60,ESE,113,0.4,4.0,84,0.00,,,0.01,WUHU216HW,2013-02-11 07:11:00,
2013-02-11 07:16:00,37.4,33.0,29.60,North,0,2.2,2.9,84,0.00,,,0.01,WUHU216HW,2013-02-11 07:16:00,
2013-02-11 07:21:00,37.4,33.0,29.60,SE,135,2.5,2.9,84,0.00,,,0.01,WUHU216HW,2013-02-11 07:21:00,
2013-02-11 07:26:00,37.4,33.0,29.60,ESE,113,1.6,2.5,84,0.00,,,0.01,WUHU216HW,2013-02-11 07:26:00,
2013-02-11 07:31:00,37.4,33.0,29.60,ESE,113,1.8,2.5,84,0.00,,,0.01,WUHU216HW,2013-02-11 07:31:00,
2013-02-11 07:36:00,37.4,33.0,29.60,SE,135,2.5,2.5,84,0.00,,,0.01,WUHU216HW,2013-02-11 07:36:00,
2013-02-11 07:41:00,37.4,33.0,29.61,ENE,68,1.8,2.5,84,0.00,,,0.01,WUHU216HW,2013-02-11 07:41:00,
2013-02-11 07:46:00,37.4,33.0,29.61,SE,135,1.1,2.5,84,0.00,,,0.01,WUHU216HW,2013-02-11 07:46:00,
2013-02-11 07:51:00,37.4,33.0,29.61,East,90,2.0,2.0,84,0.00,,,0.01,WUHU216HW,2013-02-11 07:51:00,
2013-02-11 07:56:00,37.4,33.0,29.62,East,90,1.1,2.0,84,0.00,,,0.01,WUHU216HW,2013-02-11 07:56:00,
2013-02-11 08:01:00,37.4,33.0,29.62,ENE,68,1.3,4.3,84,0.00,,,0.01,WUHU216HW,2013-02-11 08:01:00,
2013-02-11 08:06:00,37.4,33.0,29.62,SE,135,1.8,4.3,84,0.00,,,0.01,WUHU216HW,2013-02-11 08:06:00,
2013-02-11 08:11:00,37.4,33.0,29.63,ESE,113,3.8,3.8,84,0.00,,,0.01,WUHU216HW,2013-02-11 08:11:00,
2013-02-11 08:16:00,37.3,32.9,29.63,ESE,113,3.4,3.8,84,0.00,,,0.01,WUHU216HW,2013-02-11 08:16:00,
2013-02-11 08:21:00,37.3,32.9,29.63,East,90,1.1,3.4,84,0.00,,,0.01,WUHU216HW,2013-02-11 08:21:00,
2013-02-11 08:26:00,37.3,32.9,29.63,SE,135,1.1,3.4,84,0.00,,,0.01,WUHU216HW,2013-02-11 08:26:00,
2013-02-11 08:31:00,37.4,33.0,29.63,ESE,113,3.8,3.8,84,0.00,,,0.01,WUHU216HW,2013-02-11 08:31:00,
2013-02-11 08:36:00,37.4,33.0,29.63,NE,45,0.4,3.8,84,0.00,,,0.01,WUHU216HW,2013-02-11 08:36:00,
2013-02-11 08:41:00,37.4,33.0,29.64,ESE,113,1.8,3.8,84,0.00,,,0.01,WUHU216HW,2013-02-11 08:41:00,
2013-02-11 08:46:00,37.4,33.0,29.64,ESE,113,2.2,2.9,84,0.00,,,0.01,WUHU216HW,2013-02-11 08:46:00,
2013-02-11 08:51:00,37.4,33.0,29.64,East,90,1.3,3.4,84,0.00,,,0.01,WUHU216HW,2013-02-11 08:51:00,
2013-02-11 08:56:00,37.4,33.0,29.64,ESE,113,2.5,3.4,84,0.00,,,0.01,WUHU216HW,2013-02-11 08:56:00,
2013-02-11 09:01:00,37.4,33.0,29.64,SE,135,3.8,3.8,84,0.00,,,0.01,WUHU216HW,2013-02-11 09:01:00,
2013-02-11 09:06:00,37.6,33.0,29.65,ESE,113,2.5,3.8,83,0.00,,,0.01,WUHU216HW,2013-02-11 09:06:00,
2013-02-11 09:11:00,37.6,33.2,29.65,ESE,113,2.2,2.5,84,0.00,,,0.01,WUHU216HW,2013-02-11 09:11:00,
2013-02-11 09:16:00,37.6,33.0,29.65,ESE,113,0.4,2.5,83,0.00,,,0.01,WUHU216HW,2013-02-11 09:16:00,
2013-02-11 09:21:00,37.8,33.1,29.65,East,90,1.8,3.1,83,0.00,,,0.01,WUHU216HW,2013-02-11 09:21:00,
2013-02-11 09:26:00,37.8,33.4,29.66,NE,45,1.3,3.1,84,0.00,,,0.01,WUHU216HW,2013-02-11 09:26:00,
2013-02-11 09:31:00,37.8,33.1,29.66,ENE,68,3.4,3.4,83,0.00,,,0.01,WUHU216HW,2013-02-11 09:31:00,
2013-02-11 09:36:00,37.8,33.1,29.66,East,90,1.3,3.4,83,0.00,,,0.01,WUHU216HW,2013-02-11 09:36:00,
2013-02-11 09:41:00,37.8,33.1,29.66,SE,135,2.5,2.5,83,0.00,,,0.01,WUHU216HW,2013-02-11 09:41:00,
2013-02-11 09:46:00,37.8,33.1,29.66,ESE,113,2.0,2.5,83,0.00,,,0.01,WUHU216HW,2013-02-11 09:46:00,
2013-02-11 09:51:00,37.8,33.1,29.67,North,0,1.1,2.5,83,0.00,,,0.01,WUHU216HW,2013-02-11 09:51:00,
2013-02-11 09:56:00,37.8,33.1,29.67,ESE,113,2.0,2.0,83,0.00,,,0.01,WUHU216HW,2013-02-11 09:56:00,
2013-02-11 10:01:00,37.8,32.8,29.67,ESE,113,5.6,5.6,82,0.00,,,0.01,WUHU216HW,2013-02-11 10:01:00,
2013-02-11 10:06:00,38.0,32.9,29.67,SSE,158,2.9,5.6,82,0.00,,,0.01,WUHU216HW,2013-02-11 10:06:00,
2013-02-11 10:11:00,38.0,32.9,29.68,ESE,113,2.0,2.9,82,0.00,,,0.01,WUHU216HW,2013-02-11 10:11:00,
2013-02-11 10:16:00,38.2,33.1,29.68,SE,135,1.3,2.9,82,0.00,,,0.01,WUHU216HW,2013-02-11 10:16:00,
2013-02-11 10:21:00,38.2,33.1,29.68,East,90,4.5,4.5,82,0.00,,,0.01,WUHU216HW,2013-02-11 10:21:00,
2013-02-11 10:26:00,38.3,33.3,29.68,ESE,113,2.5,4.5,82,0.00,,,0.01,WUHU216HW,2013-02-11 10:26:00,
2013-02-11 10:31:00,38.3,33.3,29.68,North,0,2.7,4.5,82,0.00,,,0.01,WUHU216HW,2013-02-11 10:31:00,
2013-02-11 10:36:00,38.5,33.5,29.68,SSE,158,2.2,2.7,82,0.00,,,0.01,WUHU216HW,2013-02-11 10:36:00,
2013-02-11 10:41:00,38.5,33.5,29.69,SE,135,1.3,2.2,82,0.00,,,0.01,WUHU216HW,2013-02-11 10:41:00,
2013-02-11 10:46:00,38.7,33.4,29.69,NE,45,0.7,2.2,81,0.00,,,0.01,WUHU216HW,2013-02-11 10:46:00,
2013-02-11 10:51:00,38.9,33.6,29.69,ESE,113,0.4,1.3,81,0.00,,,0.01,WUHU216HW,2013-02-11 10:51:00,
2013-02-11 10:56:00,38.9,33.3,29.69,NE,45,4.9,4.9,80,0.00,,,0.01,WUHU216HW,2013-02-11 10:56:00,
2013-02-11 11:01:00,38.9,33.3,29.69,East,90,5.1,5.1,80,0.00,,,0.01,WUHU216HW,2013-02-11 11:01:00,
2013-02-11 11:06:00,39.1,33.1,29.69,ESE,113,3.1,5.1,79,0.00,,,0.01,WUHU216HW,2013-02-11 11:06:00,
2013-02-11 11:11:00,39.1,33.1,29.70,ESE,113,2.0,3.4,79,0.00,,,0.01,WUHU216HW,2013-02-11 11:11:00,
2013-02-11 11:16:00,39.1,33.1,29.70,NE,45,3.1,3.1,79,0.00,,,0.01,WUHU216HW,2013-02-11 11:16:00,
2013-02-11 11:21:00,39.1,33.1,29.70,ESE,113,4.5,4.5,79,0.00,,,0.01,WUHU216HW,2013-02-11 11:21:00,
2013-02-11 11:26:00,39.2,33.3,29.71,ESE,113,4.9,4.9,79,0.00,,,0.01,WUHU216HW,2013-02-11 11:26:00,
2013-02-11 11:31:00,39.1,33.1,29.71,SE,135,1.3,4.9,79,0.00,,,0.01,WUHU216HW,2013-02-11 11:31:00,
2013-02-11 11:36:00,39.1,33.1,29.71,East,90,1.6,4.9,79,0.00,,,0.01,WUHU216HW,2013-02-11 11:36:00,
2013-02-11 11:41:00,39.2,33.3,29.71,NW,315,2.0,3.6,79,0.00,,,0.01,WUHU216HW,2013-02-11 11:41:00,
2013-02-11 11:46:00,39.2,33.3,29.71,ESE,113,5.6,5.6,79,0.00,,,0.01,WUHU216HW,2013-02-11 11:46:00,
2013-02-11 11:51:00,39.2,33.3,29.71,NNE,23,2.2,5.6,79,0.00,,,0.01,WUHU216HW,2013-02-11 11:51:00,
2013-02-11 11:56:00,39.2,33.3,29.71,ENE,68,1.8,5.6,79,0.00,,,0.01,WUHU216HW,2013-02-11 11:56:00,
2013-02-11 12:01:00,39.6,33.7,29.71,SE,135,4.0,4.0,79,0.00,,,0.01,WUHU216HW,2013-02-11 12:01:00,
2013-02-11 12:06:00,39.6,33.3,29.71,ESE,113,2.5,4.0,78,0.00,,,0.01,WUHU216HW,2013-02-11 12:06:00,
2013-02-11 12:11:00,39.6,33.3,29.71,SSE,158,1.8,4.0,78,0.00,,,0.01,WUHU216HW,2013-02-11 12:11:00,
2013-02-11 12:16:00,39.4,33.1,29.71,ESE,113,6.3,6.3,78,0.00,,,0.01,WUHU216HW,2013-02-11 12:16:00,
2013-02-11 12:21:00,39.4,33.5,29.71,ESE,113,3.8,6.3,79,0.00,,,0.01,WUHU216HW,2013-02-11 12:21:00,
2013-02-11 12:26:00,39.6,32.9,29.71,SE,135,4.7,6.3,77,0.00,,,0.01,WUHU216HW,2013-02-11 12:26:00,
2013-02-11 12:31:00,39.8,33.9,29.71,ESE,113,1.8,4.7,79,0.00,,,0.01,WUHU216HW,2013-02-11 12:31:00,
2013-02-11 12:36:00,39.6,32.9,29.71,ESE,113,5.8,5.8,77,0.00,,,0.01,WUHU216HW,2013-02-11 12:36:00,
2013-02-11 12:41:00,39.6,32.9,29.72,ESE,113,6.3,6.3,77,0.00,,,0.01,WUHU216HW,2013-02-11 12:41:00,
2013-02-11 12:46:00,39.6,32.9,29.72,SE,135,2.2,6.3,77,0.00,,,0.01,WUHU216HW,2013-02-11 12:46:00,
2013-02-11 12:51:00,39.8,33.1,29.72,SSE,158,2.5,2.7,77,0.00,,,0.01,WUHU216HW,2013-02-11 12:51:00,
2013-02-11 12:56:00,39.6,32.9,29.72,East,90,3.1,3.1,77,0.00,,,0.01,WUHU216HW,2013-02-11 12:56:00,
2013-02-11 13:01:00,39.8,33.1,29.72,ESE,113,3.4,3.4,77,0.00,,,0.01,WUHU216HW,2013-02-11 13:01:00,
2013-02-11 13:06:00,39.8,32.8,29.73,East,90,2.7,3.4,76,0.00,,,0.01,WUHU216HW,2013-02-11 13:06:00,
2013-02-11 13:12:00,39.8,32.5,29.73,SE,135,4.7,4.7,75,0.00,,,0.01,WUHU216HW,2013-02-11 13:12:00,
2013-02-11 13:17:00,39.6,32.3,29.73,East,90,2.5,4.7,75,0.00,,,0.01,WUHU216HW,2013-02-11 13:17:00,
2013-02-11 13:22:00,39.8,32.1,29.73,SE,135,1.6,4.7,74,0.00,,,0.01,WUHU216HW,2013-02-11 13:22:00,
2013-02-11 13:27:00,40.0,32.3,29.73,South,180,2.2,3.6,74,0.00,,,0.01,WUHU216HW,2013-02-11 13:27:00,
2013-02-11 13:32:00,40.0,32.0,29.73,NE,45,2.5,2.5,73,0.00,,,0.01,WUHU216HW,2013-02-11 13:32:00,
2013-02-11 13:37:00,40.0,31.3,29.73,ESE,113,4.3,4.3,71,0.00,,,0.01,WUHU216HW,2013-02-11 13:37:00,
2013-02-11 13:42:00,40.0,31.3,29.73,East,90,2.5,4.3,71,0.00,,,0.01,WUHU216HW,2013-02-11 13:42:00,
2013-02-11 13:47:00,40.0,31.0,29.73,SE,135,8.9,8.9,70,0.00,,,0.01,WUHU216HW,2013-02-11 13:47:00,
2013-02-11 13:52:00,40.0,31.0,29.74,ESE,113,0.9,8.9,70,0.00,,,0.01,WUHU216HW,2013-02-11 13:52:00,
2013-02-11 13:57:00,40.1,31.1,29.74,ESE,113,1.6,2.9,70,0.00,,,0.01,WUHU216HW,2013-02-11 13:57:00,
2013-02-11 14:02:00,40.0,30.6,29.74,ESE,113,1.3,2.5,69,0.00,,,0.01,WUHU216HW,2013-02-11 14:02:00,
2013-02-11 14:07:00,40.0,31.0,29.74,ESE,113,4.5,4.5,70,0.00,,,0.01,WUHU216HW,2013-02-11 14:07:00,
2013-02-11 14:12:00,40.0,30.6,29.74,ESE,113,2.2,4.5,69,0.00,,,0.01,WUHU216HW,2013-02-11 14:12:00,
2013-02-11 14:17:00,40.0,31.0,29.75,SSE,158,1.8,4.5,70,0.00,,,0.01,WUHU216HW,2013-02-11 14:17:00,
2013-02-11 14:22:00,40.0,31.0,29.75,East,90,3.8,4.0,70,0.00,,,0.01,WUHU216HW,2013-02-11 14:22:00,
2013-02-11 14:27:00,40.0,30.6,29.75,SSE,158,2.5,3.8,69,0.00,,,0.01,WUHU216HW,2013-02-11 14:27:00,
2013-02-11 14:32:00,39.8,30.4,29.75,NE,45,2.0,3.8,69,0.00,,,0.01,WUHU216HW,2013-02-11 14:32:00,
2013-02-11 14:37:00,39.8,30.4,29.75,East,90,1.6,2.5,69,0.00,,,0.01,WUHU216HW,2013-02-11 14:37:00,
2013-02-11 14:42:00,39.8,31.2,29.75,SE,135,2.7,2.7,71,0.00,,,0.01,WUHU216HW,2013-02-11 14:42:00,
2013-02-11 14:47:00,39.8,30.8,29.75,SE,135,2.9,2.9,70,0.00,,,0.01,WUHU216HW,2013-02-11 14:47:00,
2013-02-11 14:52:00,39.8,31.2,29.76,East,90,1.8,2.9,71,0.00,,,0.01,WUHU216HW,2013-02-11 14:52:00,
2013-02-11 14:57:00,39.6,31.0,29.76,ENE,68,1.3,2.9,71,0.00,,,0.01,WUHU216HW,2013-02-11 14:57:00,
2013-02-11 15:02:00,39.6,31.0,29.76,ESE,113,1.1,1.8,71,0.00,,,0.01,WUHU216HW,2013-02-11 15:02:00,
2013-02-11 15:07:00,39.4,31.2,29.76,ESE,113,3.4,3.4,72,0.00,,,0.01,WUHU216HW,2013-02-11 15:07:00,
2013-02-11 15:12:00,39.2,31.0,29.76,SE,135,2.7,3.4,72,0.00,,,0.01,WUHU216HW,2013-02-11 15:12:00,
2013-02-11 15:17:00,39.2,31.2,29.76,SE,135,1.1,3.4,73,0.00,,,0.01,WUHU216HW,2013-02-11 15:17:00,
2013-02-11 15:22:00,39.2,31.2,29.76,NE,45,1.3,2.7,73,0.00,,,0.01,WUHU216HW,2013-02-11 15:22:00,
2013-02-11 15:27:00,39.2,31.2,29.76,ESE,113,2.2,2.2,73,0.00,,,0.01,WUHU216HW,2013-02-11 15:27:00,
2013-02-11 15:32:00,39.2,30.6,29.77,ESE,113,0.4,2.2,71,0.00,,,0.01,WUHU216HW,2013-02-11 15:32:00,
2013-02-11 15:37:00,39.2,30.6,29.77,NE,45,1.8,2.2,71,0.00,,,0.01,WUHU216HW,2013-02-11 15:37:00,
2013-02-11 15:42:00,39.2,31.2,29.77,SE,135,3.4,3.4,73,0.00,,,0.01,WUHU216HW,2013-02-11 15:42:00,
2013-02-11 15:47:00,39.1,31.4,29.77,SE,135,2.0,3.4,74,0.00,,,0.01,WUHU216HW,2013-02-11 15:47:00,
2013-02-11 15:52:00,38.9,31.0,29.77,NW,315,0.7,3.4,73,0.00,,,0.01,WUHU216HW,2013-02-11 15:52:00,
2013-02-11 15:57:00,38.7,30.1,29.78,ESE,113,4.0,4.0,71,0.00,,,0.01,WUHU216HW,2013-02-11 15:57:00,
2013-02-11 16:02:00,38.7,29.8,29.78,East,90,0.9,4.0,70,0.00,,,0.01,WUHU216HW,2013-02-11 16:02:00,
2013-02-11 16:07:00,38.5,30.0,29.78,ESE,113,4.0,4.0,71,0.00,,,0.01,WUHU216HW,2013-02-11 16:07:00,
2013-02-11 16:12:00,38.5,30.0,29.78,ENE,68,0.4,4.0,71,0.00,,,0.01,WUHU216HW,2013-02-11 16:12:00,
2013-02-11 16:17:00,38.5,30.0,29.78,SSE,158,1.1,3.1,71,0.00,,,0.01,WUHU216HW,2013-02-11 16:17:00,
2013-02-11 16:22:00,38.3,29.4,29.79,SE,135,0.7,1.1,70,0.00,,,0.01,WUHU216HW,2013-02-11 16:22:00,
2013-02-11 16:27:00,38.2,29.3,29.79,ENE,68,5.1,5.1,70,0.00,,,0.01,WUHU216HW,2013-02-11 16:27:00,
2013-02-11 16:32:00,38.2,29.6,29.79,SE,135,3.4,5.1,71,0.00,,,0.01,WUHU216HW,2013-02-11 16:32:00,
2013-02-11 16:37:00,38.0,29.4,29.80,SE,135,1.8,5.1,71,0.00,,,0.01,WUHU216HW,2013-02-11 16:37:00,
2013-02-11 16:42:00,38.0,29.8,29.80,ENE,68,0.7,3.4,72,0.00,,,0.01,WUHU216HW,2013-02-11 16:42:00,
2013-02-11 16:47:00,37.8,30.0,29.80,ESE,113,0.4,1.8,73,0.00,,,0.01,WUHU216HW,2013-02-11 16:47:00,
2013-02-11 16:52:00,37.8,30.2,29.80,ESE,113,0.4,1.3,74,0.00,,,0.01,WUHU216HW,2013-02-11 16:52:00,
2013-02-11 16:57:00,37.8,30.2,29.81,SE,135,1.8,1.8,74,0.00,,,0.01,WUHU216HW,2013-02-11 16:57:00,
2013-02-11 17:02:00,37.6,30.1,29.81,East,90,1.8,1.8,74,0.00,,,0.01,WUHU216HW,2013-02-11 17:02:00,
2013-02-11 17:07:00,37.6,30.1,29.81,ESE,113,2.7,2.7,74,0.00,,,0.01,WUHU216HW,2013-02-11 17:07:00,
2013-02-11 17:12:00,37.4,29.6,29.81,ENE,68,0.7,2.7,73,0.00,,,0.01,WUHU216HW,2013-02-11 17:12:00,
2013-02-11 17:17:00,37.4,29.6,29.81,South,180,0.4,2.7,73,0.00,,,0.01,WUHU216HW,2013-02-11 17:17:00,
2013-02-11 17:22:00,37.3,29.1,29.81,ESE,113,2.5,2.5,72,0.00,,,0.01,WUHU216HW,2013-02-11 17:22:00,
2013-02-11 17:27:00,37.3,29.4,29.82,East,90,0.2,2.5,73,0.00,,,0.01,WUHU216HW,2013-02-11 17:27:00,
2013-02-11 17:32:00,37.3,29.1,29.82,East,90,0.4,2.5,72,0.00,,,0.01,WUHU216HW,2013-02-11 17:32:00,
2013-02-11 17:37:00,37.1,29.5,29.82,ESE,113,1.1,1.1,74,0.00,,,0.01,WUHU216HW,2013-02-11 17:37:00,
2013-02-11 17:42:00,37.1,29.5,29.83,ESE,113,0.9,1.1,74,0.00,,,0.01,WUHU216HW,2013-02-11 17:42:00,
2013-02-11 17:47:00,36.9,29.7,29.83,ESE,113,4.5,4.5,75,0.00,,,0.01,WUHU216HW,2013-02-11 17:47:00,
2013-02-11 17:52:00,36.7,29.5,29.83,ESE,113,1.6,4.5,75,0.00,,,0.01,WUHU216HW,2013-02-11 17:52:00,
2013-02-11 17:57:00,36.7,29.5,29.83,East,90,1.1,1.6,75,0.00,,,0.01,WUHU216HW,2013-02-11 17:57:00,
2013-02-11 18:02:00,36.7,29.5,29.83,East,90,1.8,1.8,75,0.00,,,0.01,WUHU216HW,2013-02-11 18:02:00,
2013-02-11 18:07:00,36.5,29.0,29.83,East,90,1.6,1.8,74,0.00,,,0.01,WUHU216HW,2013-02-11 18:07:00,
2013-02-11 18:12:00,36.4,28.5,29.83,SE,135,2.5,4.5,73,0.00,,,0.01,WUHU216HW,2013-02-11 18:12:00,
2013-02-11 18:17:00,36.4,28.5,29.83,East,90,1.1,4.5,73,0.00,,,0.01,WUHU216HW,2013-02-11 18:17:00,
2013-02-11 18:22:00,36.4,28.5,29.83,ESE,113,3.6,3.6,73,0.00,,,0.01,WUHU216HW,2013-02-11 18:22:00,
2013-02-11 18:27:00,36.5,29.0,29.84,SE,135,1.1,3.6,74,0.00,,,0.01,WUHU216HW,2013-02-11 18:27:00,
2013-02-11 18:32:00,36.5,29.0,29.84,SE,135,3.1,3.6,74,0.00,,,0.01,WUHU216HW,2013-02-11 18:32:00,
2013-02-11 18:37:00,36.4,28.5,29.84,ESE,113,1.1,3.1,73,0.00,,,0.01,WUHU216HW,2013-02-11 18:37:00,
2013-02-11 18:42:00,36.4,28.5,29.84,SE,135,0.9,3.1,73,0.00,,,0.01,WUHU216HW,2013-02-11 18:42:00,
2013-02-11 18:47:00,36.4,28.5,29.84,ESE,113,0.9,1.1,73,0.00,,,0.01,WUHU216HW,2013-02-11 18:47:00,
2013-02-11 18:52:00,36.4,28.8,29.84,ESE,113,2.0,2.0,74,0.00,,,0.01,WUHU216HW,2013-02-11 18:52:00,
2013-02-11 18:57:00,36.4,28.5,29.84,SE,135,2.7,2.7,73,0.00,,,0.01,WUHU216HW,2013-02-11 18:57:00,
2013-02-11 19:02:00,36.4,28.5,29.84,East,90,0.9,2.7,73,0.00,,,0.01,WUHU216HW,2013-02-11 19:02:00,
2013-02-11 19:07:00,36.2,28.4,29.84,ESE,113,2.0,2.7,73,0.00,,,0.01,WUHU216HW,2013-02-11 19:07:00,
2013-02-11 19:12:00,36.2,28.4,29.84,East,90,2.9,2.9,73,0.00,,,0.01,WUHU216HW,2013-02-11 19:12:00,
2013-02-11 19:17:00,36.2,28.4,29.85,SE,135,2.0,2.9,73,0.00,,,0.01,WUHU216HW,2013-02-11 19:17:00,
2013-02-11 19:22:00,36.2,28.4,29.85,NE,45,0.2,2.9,73,0.00,,,0.01,WUHU216HW,2013-02-11 19:22:00,
2013-02-11 19:27:00,36.0,28.4,29.85,NE,45,0.0,0.4,74,0.00,,,0.01,WUHU216HW,2013-02-11 19:27:00,
2013-02-11 19:32:00,36.0,28.4,29.85,ESE,113,1.6,1.6,74,0.00,,,0.01,WUHU216HW,2013-02-11 19:32:00,
2013-02-11 19:37:00,36.0,28.8,29.85,ESE,113,2.9,2.9,75,0.00,,,0.01,WUHU216HW,2013-02-11 19:37:00,
2013-02-11 19:42:00,36.0,28.8,29.86,East,90,1.3,2.9,75,0.00,,,0.01,WUHU216HW,2013-02-11 19:42:00,
2013-02-11 19:47:00,36.0,28.8,29.86,ESE,113,6.0,6.0,75,0.00,,,0.01,WUHU216HW,2013-02-11 19:47:00,
2013-02-11 19:52:00,36.0,28.8,29.86,ENE,68,1.1,6.0,75,0.00,,,0.01,WUHU216HW,2013-02-11 19:52:00,
2013-02-11 19:58:00,36.0,28.8,29.86,SE,135,0.4,6.0,75,0.00,,,0.01,WUHU216HW,2013-02-11 19:58:00,
2013-02-11 20:03:00,36.2,29.0,29.86,East,90,1.3,1.3,75,0.00,,,0.01,WUHU216HW,2013-02-11 20:03:00,
2013-02-11 20:08:00,36.0,28.8,29.87,SE,135,0.2,1.3,75,0.00,,,0.01,WUHU216HW,2013-02-11 20:08:00,
2013-02-11 20:13:00,36.0,29.2,29.86,ESE,113,1.3,1.3,76,0.00,,,0.01,WUHU216HW,2013-02-11 20:13:00,
2013-02-11 20:18:00,36.0,29.2,29.87,ESE,113,0.7,1.3,76,0.00,,,0.01,WUHU216HW,2013-02-11 20:18:00,
2013-02-11 20:23:00,36.0,29.2,29.87,ESE,113,0.9,1.3,76,0.00,,,0.01,WUHU216HW,2013-02-11 20:23:00,
2013-02-11 20:28:00,36.0,29.2,29.87,North,0,1.1,1.1,76,0.00,,,0.01,WUHU216HW,2013-02-11 20:28:00,
2013-02-11 20:33:00,36.0,29.2,29.87,East,90,0.9,1.1,76,0.00,,,0.01,WUHU216HW,2013-02-11 20:33:00,
2013-02-11 20:38:00,36.0,29.2,29.87,SE,135,3.6,3.6,76,0.00,,,0.01,WUHU216HW,2013-02-11 20:38:00,
2013-02-11 20:43:00,36.0,29.2,29.87,NE,45,4.0,4.0,76,0.00,,,0.01,WUHU216HW,2013-02-11 20:43:00,
2013-02-11 20:48:00,36.0,29.2,29.88,East,90,1.1,4.0,76,0.00,,,0.01,WUHU216HW,2013-02-11 20:48:00,
2013-02-11 20:53:00,35.8,29.0,29.88,ESE,113,1.8,3.4,76,0.00,,,0.01,WUHU216HW,2013-02-11 20:53:00,
2013-02-11 20:58:00,35.8,29.0,29.88,SE,135,0.9,1.8,76,0.00,,,0.01,WUHU216HW,2013-02-11 20:58:00,
2013-02-11 21:03:00,35.8,29.0,29.88,ESE,113,1.1,1.8,76,0.00,,,0.01,WUHU216HW,2013-02-11 21:03:00,
2013-02-11 21:08:00,35.6,29.1,29.88,SE,135,1.8,1.8,77,0.00,,,0.01,WUHU216HW,2013-02-11 21:08:00,
2013-02-11 21:13:00,35.6,29.1,29.88,ESE,113,1.3,1.8,77,0.00,,,0.01,WUHU216HW,2013-02-11 21:13:00,
2013-02-11 21:18:00,35.6,29.1,29.88,ESE,113,0.4,1.8,77,0.00,,,0.01,WUHU216HW,2013-02-11 21:18:00,
2013-02-11 21:23:00,35.6,29.1,29.89,ESE,113,0.4,1.6,77,0.00,,,0.01,WUHU216HW,2013-02-11 21:23:00,
2013-02-11 21:28:00,35.6,29.1,29.89,ESE,113,0.7,1.3,77,0.00,,,0.01,WUHU216HW,2013-02-11 21:28:00,
2013-02-11 21:33:00,35.5,28.9,29.89,ESE,113,0.4,1.3,77,0.00,,,0.01,WUHU216HW,2013-02-11 21:33:00,
2013-02-11 21:38:00,35.5,28.9,29.89,East,90,2.5,2.5,77,0.00,,,0.01,WUHU216HW,2013-02-11 21:38:00,
2013-02-11 21:43:00,35.6,29.1,29.89,East,90,0.4,2.5,77,0.00,,,0.01,WUHU216HW,2013-02-11 21:43:00,
2013-02-11 21:48:00,35.5,28.9,29.90,ESE,113,4.7,4.7,77,0.00,,,0.01,WUHU216HW,2013-02-11 21:48:00,
2013-02-11 21:53:00,35.5,28.9,29.90,ESE,113,1.1,4.7,77,0.00,,,0.01,WUHU216HW,2013-02-11 21:53:00,
2013-02-11 21:58:00,35.5,28.9,29.90,East,90,2.7,4.7,77,0.00,,,0.01,WUHU216HW,2013-02-11 21:58:00,
2013-02-11 22:03:00,35.3,28.7,29.90,SSE,158,3.8,3.8,77,0.00,,,0.01,WUHU216HW,2013-02-11 22:03:00,
2013-02-11 22:08:00,35.3,28.7,29.90,ESE,113,0.9,3.8,77,0.00,,,0.01,WUHU216HW,2013-02-11 22:08:00,
2013-02-11 22:13:00,35.1,28.5,29.90,SE,135,0.9,3.8,77,0.00,,,0.01,WUHU216HW,2013-02-11 22:13:00,
2013-02-11 22:18:00,35.1,28.5,29.90,ESE,113,2.5,2.5,77,0.00,,,0.01,WUHU216HW,2013-02-11 22:18:00,
2013-02-11 22:23:00,35.1,28.5,29.90,ESE,113,2.7,2.7,77,0.00,,,0.01,WUHU216HW,2013-02-11 22:23:00,
2013-02-11 22:28:00,34.9,28.4,29.90,ESE,113,2.9,2.9,77,0.00,,,0.01,WUHU216HW,2013-02-11 22:28:00,
2013-02-11 22:33:00,34.9,28.4,29.90,East,90,2.5,2.9,77,0.00,,,0.01,WUHU216HW,2013-02-11 22:33:00,
2013-02-11 22:38:00,34.9,28.4,29.90,East,90,2.5,2.9,77,0.00,,,0.01,WUHU216HW,2013-02-11 22:38:00,
2013-02-11 22:43:00,34.9,28.4,29.91,ESE,113,3.8,3.8,77,0.00,,,0.01,WUHU216HW,2013-02-11 22:43:00,
2013-02-11 22:48:00,34.9,28.4,29.91,ESE,113,3.4,3.8,77,0.00,,,0.01,WUHU216HW,2013-02-11 22:48:00,
2013-02-11 22:53:00,34.9,28.7,29.91,ESE,113,0.4,3.8,78,0.00,,,0.01,WUHU216HW,2013-02-11 22:53:00,
2013-02-11 22:58:00,34.9,28.7,29.91,East,90,0.9,3.4,78,0.00,,,0.01,WUHU216HW,2013-02-11 22:58:00,
2013-02-11 23:03:00,34.9,28.7,29.92,ESE,113,0.4,0.9,78,0.00,,,0.01,WUHU216HW,2013-02-11 23:03:00,
2013-02-11 23:08:00,34.9,28.7,29.91,ESE,113,1.8,1.8,78,0.00,,,0.01,WUHU216HW,2013-02-11 23:08:00,
2013-02-11 23:13:00,34.7,28.5,29.91,ESE,113,2.5,2.5,78,0.00,,,0.01,WUHU216HW,2013-02-11 23:13:00,
2013-02-11 23:18:00,34.7,28.5,29.91,ESE,113,0.7,2.5,78,0.00,,,0.01,WUHU216HW,2013-02-11 23:18:00,
2013-02-11 23:23:00,34.7,28.8,29.91,ESE,113,0.7,2.5,79,0.00,,,0.01,WUHU216HW,2013-02-11 23:23:00,
2013-02-11 23:28:00,34.7,28.8,29.91,SE,135,0.4,0.7,79,0.00,,,0.01,WUHU216HW,2013-02-11 23:28:00,
2013-02-11 23:33:00,34.7,28.8,29.92,ESE,113,0.4,0.7,79,0.00,,,0.01,WUHU216HW,2013-02-11 23:33:00,
2013-02-11 23:38:00,34.7,28.8,29.92,East,90,1.8,1.8,79,0.00,,,0.01,WUHU216HW,2013-02-11 23:38:00,
2013-02-11 23:43:00,34.7,28.8,29.92,ESE,113,0.7,1.8,79,0.00,,,0.01,WUHU216HW,2013-02-11 23:43:00,
2013-02-11 23:48:00,34.9,28.7,29.92,ESE,113,0.7,1.8,78,0.00,,,0.01,WUHU216HW,2013-02-11 23:48:00,
2013-02-11 23:53:00,34.9,28.7,29.92,ESE,113,1.8,1.8,78,0.00,,,0.01,WUHU216HW,2013-02-11 23:53:00,
2013-02-11 23:58:00,34.9,28.7,29.92,ESE,113,1.1,1.8,78,0.00,,,0.01,WUHU216HW,2013-02-11 23:58:00,